Погода Полярный

Погода Полярный : погода сейчас, прогноз погоды и архив. Всё, что Вы хотите узнать о погоде Полярный!

Хотите узнать прогноз погоды Полярный? Тогда Вам сюда: Погода Полярный

Поиск расширенной информации на нашем сайте:

Полезная информация: Изготовление Салфеток с логотипом

Другие новости

Новости СМИ2

Главная страница сайта

Новости сайта

03.07.2017

Напоминаем, что на нашем специализированном сайте Метеоцентр.Азия вы можете получить высокодетализированные автоматические прогнозы погоды по пунктам России, СНГ и мира в авиационном формате (включающие направление и скорость ветра, видимость, явления погоды, количество и форму облачности, нижнюю и верхнюю границу облачности).

Рекомендуем: Надежно - новости балаково - у нас дешевле.

Погода Полярный - сегодня

Время (UTC), дата Ветер
(°,м/с) 
Видим.   Явления Облачность Т
(°С)
Тd
(°С)
f(%) Тe
(°С)
Pmin
(гПа)
dP
(гПа)
Po
(мм)
O2
(г/м3)
Тmin Tmax R s Состояние
почвы
18 17.04.18 090 (В) 20000 м  в посл. час ливневой снег  8/5 600 м кучево-дожд., средняя 
[Cb cap|Ac trans]
-6 -6.4 97 -9  999.9  -1.6  704  291           
21 17.04.18 080 (В) 20000 м    10/6 600 м кучево-дожд., средняя 
[Cb cap|Ac und]
-5.4 -6.1 95 -9  998  -1.7  702  289           
00 18.04.18 100 (В) 20000 м    10/6 870 м кучево-дожд., средняя 
[Cb cap|Ac und]
-3.4 -5.2 87 -6  995.6  -1.8  701  287  -6.1    0.3  46  равномерный
мокрый или
старый снег
100% 
12 18.04.18 200 (Ю) 20000 м  в посл. час ливневой снег  10/8 420 м кучево-дожд., средняя 
[Cb cap|Ac und]
-4.4 -6.2 87 -7  996.3  3.8  701  288    -1.1     
15 18.04.18 150 (ЮВ) 20000 м    10/8 300 м кучево-дожд., средняя 
[Cb cap|Ac und]
-7.9 -12 72 -11  996.9  0.4  701  292           
21 18.04.18 120 (ЮВ) 20000 м    10/8 300 м кучево-дожд., средняя 
[Cb cap|Ac und]
-11.5 -15 75 -15  999.5  702  297           
00 19.04.18 070 (В) 20000 м    8/4 1000 м средняя 
[Sc|Ac trans]
-8 -9.8 87 -10  996.5  -1.9  701  292  -12.1      49  равномерный
сухой снег
100% 
03 19.04.18 200 (Ю) 20000 м    10/5 600 м средняя 
[Sc|Ac und]
-2.6 -13.1 44 -2  995.6  0.3  701  286           
06 19.04.18 200 (Ю) 20000 м    10/5 600 м средняя 
[Cu Sc|Ac und]
-1.8 -15.2 35 -1  995.9  0.5  702  286           
12 19.04.18 250 (З) 20000 м  {ливн. осадки}  10/6 960 м кучево-дожд., средняя 
[Cb cap|Ac trans]
-5.1 -11 63 -7  1000.9  2.3  704  290    -0.4  0.0     
15 19.04.18 230 (ЮЗ) 20000 м    10/6 800 м кучево-дожд., средняя 
[Cb cap|Ac trans]
-8.5 -11 82 -8  1002.9  1.2  705  294           
18 19.04.18 260 (З) 20000 м    10/6 900 м кучево-дожд., средняя 
[Cb cap|Ac trans]
-11.1 -12.4 90 -15  1004.5  0.8  706  298           
21 19.04.18 220 (ЮЗ) 20000 м    10/5 1000 м средняя, верхняя 
[Sc|Ac und|Ci fib]
-13.4 -15.4 85 -17  1006.6  1.5  707  301           
00 20.04.18 250 (З) 20000 м    10/0 средняя, верхняя 
[As op|Cs]
-11.5 -14.3 80 -16  1006.6  0.4  707  299  -13.9      47  равномерный
сухой снег
100% 
03 20.04.18 250 (З) 10 км  слаб. снег  10/5 300 м средняя 
[Frnb|As op]
-8.4 -15.4 57 -11  1006.3  0.5  708  295           
12 20.04.18 250 (З) 20000 м  в посл. час ливневой снег  10/8 300 м кучево-дожд., средняя 
[Cb cap|Ac trans]
-8.1 -10.4 83 -11  1012.9  2.3  712  297    -5.4  0.7     
15 20.04.18 260 (З) 20000 м    10/8 300 м кучево-дожд., средняя 
[Cb cap|Ac trans]
-11.5 -12.1 95 -13  1014.7  0.9  713  301           
18 20.04.18 260 (З) 20000 м    10/8 600 м кучево-дожд., средняя 
[Cb cap|Ac trans]
-10.8 -11.4 95 -13  1014.7  0.2  713  300           
21 20.04.18 240 (ЮЗ) 20000 м    10/5 600 м кучево-дожд., средняя, верхняя 
[Cb cap|Ac trans|Ci fib]
-11.1 -14.7 75 -11  1016.1  1.2  714  301           
00 21.04.18 210 (ЮЗ) 20000 м    10/0 средняя, верхняя 
[Ac trans|Ci]
-8.1 -13.3 66 -10  1014.5  -0.8  714  297  -11.5      47  равномерный
сухой снег
100% 
03 21.04.18 240 (ЮЗ) 20000 м    5/0 верхняя 
[Ci fib]
-4.3 -13.3 49 -7  1013.2  -0.3  713  293           
06 21.04.18 210 (ЮЗ) 20000 м    8/0 верхняя 
[Ci fib]
-1.9 -12 46 -5  1012.1  -0.2  713  290           
09 21.04.18 230 (ЮЗ) 20000 м    10/4 1000 м средняя, верхняя 
[Sc|Ac trans|Ci]
-1.8 -8.3 61 -5  1011.4  -0.7  712  290           
12 21.04.18 200 (Ю) 20000 м  слаб. снег  10/6 700 м средняя 
[Frnb|As op]
-3 -5.4 83 -6  1010.6  -0.9  712  290    -1.3  0.0     
00 22.04.18 170 (Ю) 2000 м  слаб. ливневой снег  10/8 450 м кучево-дожд., средняя 
[Cb cap|Ac und]
-1.1 -1.5 97 -3  1002.9  -1.1  707  286  -3.3    0.2  45  равномерный
сухой снег
100% 
Время (UTC), дата Ветер
(°,м/с) 
Видим.   Явления Облачность Т
(°С)
Тd
(°С)
f(%) Тe
(°С)
Pmin
(гПа)
dP
(гПа)
Po
(мм)
O2
(г/м3)
Тmin Tmax R s Состояние
почвы

Для получения пояснительной информации подведите курсор к названию столбца.

ПОГОДА Полярный - архив

Всё, что Вы хотите узнать о погоде Полярный - удобно и подробно!

Выберите нужную дату (начиная с 1 января 2015* года) и нажмите кнопку "Найти".
Будут отображены архивные сводки погоды по пункту Полярный, начиная с указанной даты.


Отображать данные в формате CSV (для использования в таблицах Excel)


Внимание! Наш архив погоды предназначен исключительно для личного некоммерческого использования в познавательных целях. Если Вам необходимы официальные справки о состоянии погоды (для производственных, юридических, коммерческих и т.п. целей), обращайтесь в органы Росгидромета.

*Примечание: данная дата относится к архиву по метеостанциям СССР (Россия, СНГ, Балтия).
Архив по метеостанциям Зарубежной Европы и Азии (кроме Китая) хранится 10 дней, по другим регионам земного шара (Китай, Африка, Америка, Австралия, Океания) - 1 день.

Полярный - район местоположения метеостанции


Название, широта, долгота, высота метеостанции:
Полярный 66.5°ш. 112°д. 509 м над ур. моря [Российская Федерация]

Дополнительная информация

В oтличие oт бoльшинства пoгoдных сайтoв мы публикуем пoдрoбную метеoинфoрмацию в детальнoм прoфессиoнальнoм фoрмате.

Характеристики температуры и влажнoсти вoздуха измеряются на высoте 2 м в тени вдали oт зданий и деревьев.
Скoрoсть ветра измеряется на высoте 10 м (на урoвне рoста челoвека скoрoсть ветра ниже в 1.5-2 раза). Если метеoстанция нахoдится в гoрoде или в лесу, тo скoрoсть ветра занижена на 2-4 м/с пo сравнению с oткрытым местoм. Скoрoсть ветра над акватoриями крупных рек и oзёр, а также на вершинах хoлмoв на 2-5 м/с выше, чем в oбычных услoвиях.
Атмoсфернoе давление в разных тoчках местнoсти мoжет значительнo oтличаться oт давления на метеoстанции, в зависимoсти oт услoвий рельефа (при пoдъёме на 10 м давление пoнижается примернo на 1 мм рт.ст.).